SL-8 R/B

Satellite information

Favourite Embed

Satellite Type and Status

ROCKET BODYIN ORBIT

Key statistics

Satellite SL-8 R/B at a glance.

Uptime

17972

Days in orbit

Revolutions

≈ 14.4

Per day

Orbit

LEO

Low Earth Orbit

Inclination

74.1

Latest

Satellite identification and parameters

Extended collection of information and parameters for SL-8 R/B.

Object identification

Identified? True

Debris? False

Object name: SL-8 R/B

International designator: 1976-098B

Object number (NORAD): 9444

Object ID (CCSDS): 9444

Country: COMMONWEALTH OF INDEPENDENT STATES (CIS)

Current information (Y/N): Y

RCS size: LARGE

Orbital parameters

Period: 100.05 minutes

Inclination: 74.0512 deg

SMA: 7139.011 km

Apoapsis: 769.135 km

Periapsis: 752.618 km

RAAN: 351.1426 deg

Eccentricy: 0.00115681

Argument of periapsis: 83.9602 deg

Mean anomaly: 276.2871 deg

Mean motion: 14.39281258 rev/day

Mean motion (dot): 0.00000378 rev/day2

B* drag term: 0.00013002354 1/REarth

Two-line elements (TLE)

Creation date: Dec. 12, 2025, 10:14 a.m.

Reference frame: TEME

Reference center: EARTH

Epoch: Dec. 12, 2025, 6:17 a.m. UTC

TLE line 0: 0 SL-8 R/B

TLE line 1: 1 09444U 76098B 25346.26220379 .00000378 00000-0 13002-3 0 9999

TLE line 2: 2 09444 74.0512 351.1426 0011568 83.9602 276.2871 14.39281258 14307

Live tracking on map

Real-time ground track for satellite SL-8 R/B.

In-orbit conjunctions

A list of the most updated potential collisions computed for object SL-8 R/B.

Target Orbit TCA Probability of collision Miss distance Type
DMSP 5D-2 F11 DEB SSO 2025-07-18 16:43:47 0.0001344294 234.0 (m) DEBRIS
IRIDIUM 33 DEB LEO 2025-05-04 22:05:07 0.000131335 658.0 (m) DEBRIS
THOR ABLESTAR DEB LEO 2025-02-09 09:13:06 0.0007335741 47.0 (m) DEBRIS
CZ-6A DEB LEO 2024-11-21 14:57:09 0.0003899722 857.0 (m) DEBRIS
NOAA 17 DEB SSO 2024-08-16 23:01:09 0.0003377809 288.0 (m) DEBRIS

Associated space launch

Military communications satellite

SL-8 R/B was lifted into orbit during the mission ‘Kosmos-3M | Strela-2M 14’, on board a Kosmos-3M space rocket.

The launch took place on Sept. 29, 1976, 7:04 a.m. from 132/2.

For more information about the launch, click the button.

Launch to space Kosmos-3M | Strela-2M 14
Kosmos-3M | Strela-2M 14

Agency: N/A

Status: Launch Successful

Launch date: Sept. 29, 1976, 7:04 a.m. UTC

Rocket: Kosmos-3M

Launch pad: 132/2

Location: Plesetsk Cosmodrome, Russian Federation

...

Latest news about this satellite

There are no fresh news available about this satellite. Check back as we update our databases every day.


Newsletter sign-up

Weekly statistics, charts and insights to help you stay on top of the space industry.